When you browse on this site, cookies collect data to enhance your experience and personalize the content and advertising you see.
Visit our Privacy Policy to learn more. By continuing to use the site, you agree to this use of cookies and data.
  • In Romania
  • List of Countries
  • For 7 days
  • Water Temperature
  • Weather Map
  • Weather Widgets
  • user-avatar
    Login

    Hourly Weather Luanda

    Today, 2 June, Tuesday

    Time Temperature Precipitation Wind Pressure Humidity
    00:00 +24°C° 0 mm 2 mps 755 mmHg 95%
    01:00 +24°C° 0 mm 2 mps 755 mmHg 96%
    02:00 +23°C° 0 mm 2 mps 755 mmHg 96%
    03:00 +23°C° 0 mm 1 mps 755 mmHg 96%
    04:00 +23°C° 0 mm 1 mps 755 mmHg 96%
    05:00 +23°C° 0 mm 1 mps 755 mmHg 95%
    06:00 +24°C° 0 mm 2 mps 755 mmHg 94%
    07:00 +24°C° 0 mm 3 mps 756 mmHg 92%
    08:00 +26°C° 0 mm 2 mps 756 mmHg 82%
    09:00 +28°C° 0 mm 1 mps 756 mmHg 71%
    10:00 +31°C° 0 mm 1 mps 756 mmHg 61%
    11:00 +32°C° 0 mm 2 mps 755 mmHg 56%
    12:00 +34°C° 0 mm 2 mps 755 mmHg 51%
    13:00 +35°C° 0 mm 3 mps 754 mmHg 45%
    14:00 +34°C° 0 mm 4 mps 753 mmHg 51%
    15:00 +33°C° 0 mm 4 mps 753 mmHg 57%
    16:00 +30°C° 0 mm 4 mps 752 mmHg 63%
    17:00 +29°C° 0 mm 4 mps 752 mmHg 70%
    18:00 +27°C° 0 mm 5 mps 753 mmHg 78%
    19:00 +26°C° 0 mm 5 mps 753 mmHg 86%
    20:00 +25°C° 0 mm 4 mps 753 mmHg 89%
    21:00 +25°C° 0 mm 3 mps 754 mmHg 91%
    22:00 +24°C° 0 mm 2 mps 754 mmHg 94%
    23:00 +24°C° 0 mm 2 mps 754 mmHg 95%

    Tomorrow, 3 June, Wednesday

    Time Temperature Precipitation Wind Pressure Humidity
    00:00 +24°C° 0 mm 2 mps 754 mmHg 95%
    01:00 +23°C° 0 mm 2 mps 754 mmHg 95%
    02:00 +23°C° 0 mm 2 mps 754 mmHg 96%
    03:00 +23°C° 0 mm 2 mps 754 mmHg 96%
    04:00 +23°C° 0 mm 2 mps 753 mmHg 96%
    05:00 +23°C° 0 mm 2 mps 754 mmHg 95%
    06:00 +24°C° 0 mm 2 mps 754 mmHg 94%
    07:00 +24°C° 0 mm 2 mps 754 mmHg 93%
    08:00 +26°C° 0 mm 1 mps 755 mmHg 82%
    09:00 +28°C° 0 mm 1 mps 755 mmHg 72%
    10:00 +30°C° 0 mm 1 mps 755 mmHg 61%
    11:00 +31°C° 0 mm 2 mps 755 mmHg 59%
    12:00 +33°C° 0 mm 3 mps 754 mmHg 56%
    13:00 +33°C° 0 mm 4 mps 754 mmHg 54%
    14:00 +32°C° 0 mm 4 mps 753 mmHg 58%
    15:00 +30°C° 0 mm 4 mps 753 mmHg 63%
    16:00 +29°C° 0 mm 5 mps 752 mmHg 67%
    17:00 +28°C° 0 mm 4 mps 753 mmHg 73%
    18:00 +27°C° 0 mm 4 mps 753 mmHg 78%
    19:00 +26°C° 0 mm 4 mps 754 mmHg 84%
    20:00 +25°C° 0 mm 4 mps 754 mmHg 86%
    21:00 +25°C° 0 mm 3 mps 754 mmHg 89%
    22:00 +24°C° 0 mm 3 mps 755 mmHg 92%
    23:00 +24°C° 0 mm 2 mps 755 mmHg 93%

    Day after tomorrow, 4 June, Thursday

    Time Temperature Precipitation Wind Pressure Humidity
    00:00 +24°C° 0 mm 2 mps 755 mmHg 93%
    01:00 +24°C° 0 mm 2 mps 755 mmHg 94%
    02:00 +24°C° 0.1 mm 2 mps 754 mmHg 91%
    03:00 +25°C° 0.1 mm 1 mps 754 mmHg 88%
    04:00 +25°C° 0.1 mm 1 mps 754 mmHg 85%
    05:00 +26°C° 0 mm 1 mps 754 mmHg 82%
    06:00 +26°C° 0 mm 1 mps 755 mmHg 80%
    07:00 +26°C° 0 mm 1 mps 755 mmHg 77%
    08:00 +28°C° 0 mm 1 mps 755 mmHg 70%
    09:00 +29°C° 0 mm 1 mps 755 mmHg 63%
    10:00 +31°C° 0 mm 1 mps 755 mmHg 55%
    11:00 +32°C° 0 mm 2 mps 755 mmHg 52%
    12:00 +34°C° 0 mm 3 mps 754 mmHg 48%
    13:00 +35°C° 0 mm 4 mps 753 mmHg 44%
    14:00 +34°C° 0 mm 4 mps 753 mmHg 49%
    15:00 +33°C° 0 mm 4 mps 753 mmHg 54%
    16:00 +30°C° 0 mm 5 mps 752 mmHg 59%
    17:00 +29°C° 0 mm 5 mps 753 mmHg 65%
    18:00 +27°C° 0 mm 5 mps 753 mmHg 72%
    19:00 +26°C° 0 mm 5 mps 753 mmHg 78%
    20:00 +25°C° 0 mm 4 mps 754 mmHg 82%
    21:00 +25°C° 0 mm 3 mps 754 mmHg 85%
    22:00 +24°C° 0 mm 2 mps 755 mmHg 89%
    23:00 +24°C° 0 mm 2 mps 755 mmHg 90%

    5 June, Friday

    Time Temperature Precipitation Wind Pressure Humidity
    00:00 +24°C° 0 mm 2 mps 755 mmHg 91%
    01:00 +23°C° 0 mm 2 mps 755 mmHg 93%
    02:00 +23°C° 0 mm 2 mps 754 mmHg 93%
    03:00 +23°C° 0 mm 2 mps 754 mmHg 93%
    04:00 +23°C° 0 mm 2 mps 754 mmHg 94%
    05:00 +23°C° 0 mm 2 mps 754 mmHg 92%
    06:00 +23°C° 0 mm 2 mps 755 mmHg 90%
    07:00 +24°C° 0 mm 2 mps 755 mmHg 89%
    08:00 +26°C° 0 mm 1 mps 755 mmHg 77%
    09:00 +28°C° 0 mm 1 mps 755 mmHg 66%
    10:00 +31°C° 0 mm 1 mps 755 mmHg 55%
    11:00 +32°C° 0 mm 2 mps 755 mmHg 52%
    12:00 +34°C° 0 mm 3 mps 754 mmHg 49%
    13:00 +35°C° 0 mm 4 mps 753 mmHg 46%
    14:00 +34°C° 0 mm 4 mps 753 mmHg 52%
    15:00 +33°C° 0 mm 4 mps 753 mmHg 57%
    16:00 +32°C° 0 mm 5 mps 753 mmHg 62%
    17:00 +29°C° 0 mm 5 mps 753 mmHg 68%
    18:00 +28°C° 0 mm 5 mps 753 mmHg 75%
    19:00 +26°C° 0 mm 5 mps 754 mmHg 81%
    20:00 +25°C° 0 mm 4 mps 754 mmHg 85%
    21:00 +25°C° 0 mm 4 mps 755 mmHg 88%
    22:00 +24°C° 0 mm 3 mps 755 mmHg 91%
    23:00 +24°C° 0 mm 2 mps 755 mmHg 92%

    6 June, Saturday

    Time Temperature Precipitation Wind Pressure Humidity
    00:00 +24°C° 0 mm 2 mps 755 mmHg 93%
    01:00 +23°C° 0 mm 2 mps 755 mmHg 94%
    02:00 +23°C° 0 mm 1 mps 755 mmHg 95%
    03:00 +23°C° 0 mm 1 mps 755 mmHg 95%
    04:00 +23°C° 0 mm 1 mps 755 mmHg 95%
    05:00 +23°C° 0 mm 1 mps 755 mmHg 94%
    06:00 +23°C° 0 mm 2 mps 755 mmHg 93%
    07:00 +24°C° 0 mm 2 mps 755 mmHg 91%
    08:00 +26°C° 0 mm 2 mps 755 mmHg 80%
    09:00 +28°C° 0 mm 1 mps 755 mmHg 69%
    10:00 +30°C° 0 mm 1 mps 755 mmHg 58%
    11:00 +32°C° 0 mm 2 mps 755 mmHg 52%
    12:00 +35°C° 0 mm 2 mps 754 mmHg 45%
    13:00 +36°C° 0 mm 3 mps 753 mmHg 39%
    14:00 +35°C° 0 mm 4 mps 753 mmHg 47%
    15:00 +33°C° 0 mm 4 mps 752 mmHg 55%
    16:00 +32°C° 0 mm 5 mps 752 mmHg 63%
    17:00 +29°C° 0 mm 5 mps 752 mmHg 71%
    18:00 +27°C° 0 mm 6 mps 753 mmHg 79%
    19:00 +26°C° 0 mm 6 mps 753 mmHg 88%
    20:00 +25°C° 0 mm 5 mps 754 mmHg 90%
    21:00 +25°C° 0 mm 3 mps 754 mmHg 92%
    22:00 +24°C° 0 mm 2 mps 754 mmHg 95%
    23:00 +24°C° 0 mm 2 mps 754 mmHg 95%

    7 June, Sunday

    Time Temperature Precipitation Wind Pressure Humidity
    00:00 +24°C° 0 mm 2 mps 754 mmHg 96%
    01:00 +23°C° 0 mm 2 mps 754 mmHg 97%
    02:00 +23°C° 0 mm 1 mps 754 mmHg 97%
    03:00 +23°C° 0 mm 1 mps 754 mmHg 97%
    04:00 +22°C° 0 mm 1 mps 753 mmHg 97%
    05:00 +23°C° 0 mm 1 mps 753 mmHg 96%
    06:00 +23°C° 0 mm 2 mps 754 mmHg 95%
    07:00 +23°C° 0 mm 2 mps 754 mmHg 95%
    08:00 +26°C° 0 mm 2 mps 754 mmHg 83%
    09:00 +28°C° 0 mm 1 mps 754 mmHg 71%
    10:00 +30°C° 0 mm 1 mps 754 mmHg 59%
    11:00 +32°C° 0 mm 2 mps 753 mmHg 53%
    12:00 +35°C° 0 mm 3 mps 753 mmHg 47%
    13:00 +36°C° 0 mm 4 mps 752 mmHg 41%
    14:00 +34°C° 0 mm 4 mps 752 mmHg 50%
    15:00 +32°C° 0 mm 5 mps 751 mmHg 60%
    16:00 +29°C° 0 mm 6 mps 751 mmHg 70%
    17:00 +28°C° 0 mm 5 mps 751 mmHg 76%
    18:00 +27°C° 0 mm 5 mps 752 mmHg 82%
    19:00 +25°C° 0 mm 5 mps 752 mmHg 88%
    20:00 +25°C° 0 mm 4 mps 753 mmHg 91%
    21:00 +24°C° 0 mm 3 mps 753 mmHg 93%
    22:00 +24°C° 0 mm 2 mps 754 mmHg 95%
    23:00 +24°C° 0 mm 2 mps 754 mmHg 96%
    Show more